THOR ABLESTAR DEB, 6748

Orbit data source: Space-Track

THOR ABLESTAR DEB, 6748 is space debris in LEO originally from a launch on Thu, 29 Jun 1961 UTC launched from the Air Force Eastern Test Range (AFETR). Debris objects in space refer to the collection of defunct objects orbiting the Earth. Examples of debris include non-operational satellites, rocket bodies, and fragments generated from explosions, collisions, or faulty payload assembly.

Loading next visibility...
Identifier
6748, 1961-015KN
Orbit
LEO
Country
Flag of USUS
Related business
Manufacturer
Unknown
Mission
Spacecraft
Bus & Motor
Unknown
Mass
Unknown
Launch date (UTC)
1961-06-29 (64 years ago)
Launch vehicle
Unknown
Launch site
Air Force Eastern Test Range (AFETR)
Object type
Payload
Rocket body
Debris
Shape & HBR
Unknown shape, 0.1 m
Radar Cross Section
Small (<0.1 m²)

Expand to show TLE details & history
Last TLE update: 16 hours ago

TLE from 16 hours ago
0 THOR ABLESTAR DEB
1 06748U 61015KN  25286.87699669  .00007302  00000-0  26568-2 0  9992
2 06748  66.8929 242.8013 0057065 133.9809 226.6018 14.32743624255332
Epoch: 2025-10-13T21:02Z
TLE epoch observation values (Epoch: 2025-10-13T21:02:52.514Z)
Latitude
-0.00006°
Longitude
-95.59101°
Altitude
812.9 km
Speed
7.433 km/s
True Right ascension
16h 11m 12s
True Declination
0° 00' 00"
Sunlit
Object was in daylight at epoch
Visualization orbit readout
Latitude
Unknown
Longitude
Unknown
Altitude
Unknown
Speed
Unknown
Apparent Right ascension
Unknown
Apparent Declination
Unknown
Sunlit
N/A
Visualization observer readout
Local Sidereal Time
07:08:00
Azimuth
Unknown
Elevation
Unknown
Doppler factor
Unknown
Orbital elements
Apogee altitude
821.778 km
Perigee altitude
740.072 km
Semi-major axis
7,159.062 km
Eccentricity
0.00571
Inclination
66.8929°
RAAN
242.8013°
Arg. of periapsis
133.9809°
True anomaly
226.12899°
Mean anomaly
226.6018°
Eccentric anomaly
226.36516°
Mean motion
3.5831 °/min
Orbital period
100.47 mins
BSTAR
0.0026568
Loading maneuver chart data...
Computing Atmospheric mass density...

Documentation

Showing up to 5 results
|